Date String (YYYY-MM-DD hh:mm:ss) UTC,Instrument flags,Ambient pressure (hPa),Sample flow (lpm),Bypass flow (lpm),Sample temperature (°C),Ambient temperature (°C),ASC tube jacket temperature (°C),LED temperature (°C),Box temperature (°C),Sample RH (%),Span deviation,Mass concentration (μg/m³),Mass concentration (μg/m³),Mass concentration (μg/m³)
DateTimeUTC,F1_M11,P_M11,Q1_M11,Q2_M11,T1_M11,T2_M11,T3_M11,T4_M11,T5_M11,U1_M11,ZSPAN_M11,X0_M11,X2_M11,X1_M11
2022-10-02 09:00:00,,0828.8,4.99,0.00,29.7,28.2,00.0,38.5,31.5,20.3,0000.0,0006.77,0003.15,0002.63
2022-10-02 09:01:00,,0828.8,5.01,0.00,29.7,28.1,00.0,38.5,31.5,20.1,0000.0,0006.93,0003.14,0002.62
2022-10-02 09:02:00,,0829.1,5.00,0.00,29.7,28.1,00.0,38.5,31.5,20.1,0000.0,0007.46,0003.14,0002.61
2022-10-02 09:03:00,,0829.2,5.00,0.00,29.7,28.1,00.0,38.5,31.5,19.9,0000.0,0007.44,0003.12,0002.59
2022-10-02 09:04:00,,0829.1,5.00,0.00,29.7,28.1,00.0,38.5,31.5,19.8,0000.0,0007.34,0003.06,0002.56
2022-10-02 09:05:00,,0829.2,5.00,0.00,29.7,28.1,00.0,38.5,31.5,19.7,0000.0,0007.22,0003.05,0002.55
2022-10-02 09:06:00,,0829.2,5.00,0.00,29.7,28.1,00.0,38.5,31.5,19.6,0000.0,0007.02,0003.03,0002.53
2022-10-02 09:07:00,,0829.2,5.00,0.00,29.7,28.1,00.0,38.5,31.5,19.8,0000.0,0006.94,0002.98,0002.51
2022-10-02 09:08:00,,0829.2,4.99,0.00,29.7,28.1,00.0,38.5,31.5,19.8,0000.0,0006.34,0002.96,0002.51
2022-10-02 09:09:00,,0828.9,5.01,0.00,29.7,28.1,00.0,38.5,31.5,19.7,0000.0,0005.83,0002.94,0002.51
2022-10-02 09:10:00,,0828.7,5.01,0.00,29.7,28.0,00.0,38.5,31.5,19.5,0000.0,0006.16,0002.95,0002.50
2022-10-02 09:11:00,,0828.8,4.99,0.00,29.7,28.0,00.0,38.5,31.5,19.4,0000.0,0005.92,0002.91,0002.50
2022-10-02 09:12:00,,0828.7,5.01,0.00,29.7,28.0,00.0,38.5,31.4,19.3,0000.0,0005.70,0002.87,0002.49
2022-10-02 09:13:00,,0828.7,4.99,0.00,29.7,28.0,00.0,38.5,31.5,19.3,0000.0,0004.87,0002.81,0002.46
2022-10-02 09:14:00,,0829.2,5.00,0.00,29.7,28.0,00.0,38.5,31.4,19.4,0000.0,0004.78,0002.77,0002.45
2022-10-02 09:15:00,,0828.8,5.00,0.00,29.6,28.0,00.0,38.5,31.4,19.3,0000.0,0004.88,0002.81,0002.45
2022-10-02 09:16:00,,0828.6,5.00,0.00,29.6,28.0,00.0,38.5,31.5,19.4,0000.0,0004.96,0002.81,0002.44
2022-10-02 09:17:00,,0828.8,5.00,0.00,29.6,28.0,00.0,38.5,31.4,19.4,0000.0,0004.95,0002.82,0002.45
2022-10-02 09:18:00,,0828.9,4.99,0.00,29.6,28.0,00.0,38.4,31.4,19.5,0000.0,0005.12,0002.87,0002.48
2022-10-02 09:19:00,,0828.6,5.01,0.00,29.6,28.0,00.0,38.4,31.4,19.0,0000.0,0005.29,0002.90,0002.47
2022-10-02 09:20:00,,0828.9,5.01,0.00,29.6,28.0,00.0,38.4,31.4,18.8,0000.0,0005.24,0002.93,0002.47
2022-10-02 09:21:00,,0829.1,5.00,0.00,29.6,28.0,00.0,38.4,31.4,18.8,0000.0,0004.84,0002.88,0002.45
2022-10-02 09:22:00,,0828.7,5.00,0.00,29.6,28.0,00.0,38.4,31.4,18.9,0000.0,0004.39,0002.97,0002.45
2022-10-02 09:23:00,,0828.7,5.00,0.00,29.6,28.0,00.0,38.4,31.4,19.0,0000.0,0004.57,0003.03,0002.46
2022-10-02 09:24:00,,0829.1,5.00,0.00,29.6,28.0,00.0,38.4,31.4,19.2,0000.0,0004.80,0003.08,0002.48
2022-10-02 09:25:00,,0829.3,5.00,0.00,29.6,27.9,00.0,38.4,31.4,19.2,0000.0,0004.90,0003.10,0002.49
2022-10-02 09:26:00,,0829.2,5.01,0.00,29.6,27.9,00.0,38.4,31.4,19.5,0000.0,0004.91,0003.09,0002.51
2022-10-02 09:27:00,,0829.0,5.00,0.00,29.6,27.9,00.0,38.4,31.4,19.4,0000.0,0004.81,0003.08,0002.52
2022-10-02 09:28:00,,0829.0,4.99,0.00,29.6,27.9,00.0,38.4,31.3,19.6,0000.0,0004.99,0003.11,0002.53
2022-10-02 09:29:00,,0828.9,5.01,0.00,29.6,27.9,00.0,38.4,31.3,19.7,0000.0,0004.91,0003.12,0002.54
2022-10-02 09:30:00,,0829.2,5.01,0.00,29.6,27.9,00.0,38.4,31.3,19.7,0000.0,0004.88,0003.14,0002.55
2022-10-02 09:31:00,,0829.2,4.99,0.00,29.6,27.9,00.0,38.4,31.3,19.4,0000.0,0004.78,0003.13,0002.56
2022-10-02 09:32:00,,0828.9,5.00,0.00,29.6,27.9,00.0,38.4,31.3,19.4,0000.0,0004.79,0003.14,0002.58
2022-10-02 09:33:00,,0828.9,5.01,0.00,29.6,27.9,00.0,38.4,31.3,19.3,0000.0,0004.70,0003.11,0002.59
2022-10-02 09:34:00,,0828.9,5.01,0.00,29.5,27.9,00.0,38.4,31.3,19.0,0000.0,0004.62,0003.10,0002.60
2022-10-02 09:35:00,,0828.5,4.99,0.00,29.5,27.9,00.0,38.3,31.3,19.1,0000.0,0004.42,0003.09,0002.61
2022-10-02 09:36:00,,0828.5,5.00,0.00,29.5,27.9,00.0,38.4,31.4,19.4,0000.0,0004.37,0003.09,0002.62
2022-10-02 09:37:00,,0828.7,5.00,0.00,29.5,28.0,00.0,38.3,31.4,19.7,0000.0,0004.28,0003.07,0002.61
2022-10-02 09:38:00,,0829.0,5.00,0.00,29.5,28.0,00.0,38.3,31.4,20.1,0000.0,0004.51,0003.14,0002.62
2022-10-02 09:39:00,,0828.6,5.00,0.00,29.5,28.0,00.0,38.4,31.4,20.8,0000.0,0004.48,0003.15,0002.62
2022-10-02 09:40:00,,0828.3,5.00,0.00,29.5,28.0,00.0,38.3,31.4,22.8,0000.0,0004.52,0003.17,0002.63
2022-10-02 09:41:00,,0828.2,5.01,0.00,29.5,28.1,00.0,38.3,31.4,23.5,0000.0,0004.64,0003.18,0002.65
2022-10-02 09:42:00,,0828.3,4.99,0.00,29.6,28.1,00.0,38.3,31.4,23.2,0000.0,0004.73,0003.19,0002.65
2022-10-02 09:43:00,,0828.3,5.02,0.00,29.6,28.1,00.0,38.3,31.4,22.2,0000.0,0004.84,0003.21,0002.68
2022-10-02 09:44:00,,0828.5,5.00,0.00,29.6,28.1,00.0,38.3,31.4,21.4,0000.0,0005.32,0003.21,0002.69
2022-10-02 09:45:00,,0829.0,5.00,0.00,29.6,28.1,00.0,38.3,31.4,20.7,0000.0,0005.74,0003.21,0002.69
2022-10-02 09:46:00,,0828.8,5.00,0.00,29.5,28.1,00.0,38.3,31.4,20.1,0000.0,0007.06,0003.23,0002.69
2022-10-02 09:47:00,,0828.9,5.01,0.00,29.5,28.0,00.0,38.3,31.4,20.7,0000.0,0007.24,0003.28,0002.71
2022-10-02 09:48:00,,0828.7,5.00,0.00,29.5,27.9,00.0,38.3,31.3,21.5,0000.0,0007.41,0003.32,0002.73
2022-10-02 09:49:00,,0828.7,5.01,0.00,29.5,27.8,00.0,38.3,31.3,22.7,0000.0,0007.39,0003.31,0002.75
2022-10-02 09:50:00,,0829.3,4.99,0.00,29.5,27.7,00.0,38.3,31.2,22.8,0000.0,0007.47,0003.34,0002.76
2022-10-02 09:51:00,,0829.2,4.99,0.00,29.4,27.7,00.0,38.3,31.2,23.2,0000.0,0007.46,0003.34,0002.76
2022-10-02 09:52:00,,0829.1,5.01,0.00,29.4,27.7,00.0,38.3,31.2,23.6,0000.0,0007.40,0003.32,0002.76
2022-10-02 09:53:00,,0829.1,5.00,0.00,29.4,27.8,00.0,38.3,31.2,23.6,0000.0,0007.49,0003.34,0002.77
2022-10-02 09:54:00,,0828.8,5.00,0.00,29.4,27.8,00.0,38.3,31.2,23.1,0000.0,0007.55,0003.36,0002.77
2022-10-02 09:55:00,,0828.7,5.01,0.00,29.4,27.8,00.0,38.2,31.2,21.5,0000.0,0007.31,0003.39,0002.78
2022-10-02 09:56:00,,0828.6,5.01,0.00,29.4,27.9,00.0,38.2,31.2,20.2,0000.0,0006.95,0003.40,0002.78
2022-10-02 09:57:00,,0829.1,4.99,0.00,29.4,27.9,00.0,38.2,31.2,19.6,0000.0,0005.72,0003.39,0002.78
2022-10-02 09:58:00,,0829.0,5.01,0.00,29.4,27.9,00.0,38.2,31.2,19.3,0000.0,0005.61,0003.36,0002.78
2022-10-02 09:59:00,,0828.6,5.01,0.00,29.4,27.9,00.0,38.2,31.2,19.2,0000.0,0005.27,0003.30,0002.76
